TimeCDT,TemperatureF,Dew PointF,Humidity,Sea Level PressureIn,VisibilityMPH,Wind Direction,Wind SpeedMPH,Gust SpeedMPH,PrecipitationIn,Events,Conditions,WindDirDegrees,DateUTC
12:40 AM,57.2,55.4,94,30.19,1.8,Calm,Calm,-,N/A,,Clear,0,2012-10-05 05:40:00
12:47 AM,57.2,55.4,94,30.19,3.0,Calm,Calm,-,N/A,,Clear,0,2012-10-05 05:47:00
12:53 AM,57.9,55.9,93,30.18,5.0,Calm,Calm,-,N/A,,Clear,0,2012-10-05 05:53:00
1:36 AM,57.2,55.4,94,30.19,2.0,Calm,Calm,-,N/A,,Clear,0,2012-10-05 06:36:00
1:51 AM,57.2,55.4,94,30.19,1.2,Calm,Calm,-,N/A,,Clear,0,2012-10-05 06:51:00
1:53 AM,57.0,55.0,93,30.18,1.2,Calm,Calm,-,N/A,,Clear,0,2012-10-05 06:53:00
2:05 AM,57.2,55.4,94,30.19,1.8,Calm,Calm,-,N/A,,Clear,0,2012-10-05 07:05:00
2:10 AM,57.2,55.4,94,30.18,0.8,Calm,Calm,-,N/A,,Clear,0,2012-10-05 07:10:00
2:17 AM,57.2,55.4,94,30.18,0.2,Calm,Calm,-,N/A,Fog,Fog,0,2012-10-05 07:17:00
2:25 AM,55.4,53.6,94,30.18,1.0,Calm,Calm,-,N/A,,Clear,0,2012-10-05 07:25:00
2:34 AM,55.4,53.6,94,30.18,0.5,Calm,Calm,-,N/A,Fog,Fog,0,2012-10-05 07:34:00
2:47 AM,55.4,53.6,94,30.17,1.0,Calm,Calm,-,N/A,,Clear,0,2012-10-05 07:47:00
2:51 AM,55.4,53.6,94,30.17,2.5,Calm,Calm,-,N/A,,Clear,0,2012-10-05 07:51:00
2:58 AM,55.4,53.6,94,30.17,1.8,Calm,Calm,-,N/A,,Clear,0,2012-10-05 07:58:00
3:03 AM,57.2,55.4,94,30.17,0.8,Calm,Calm,-,N/A,,Clear,0,2012-10-05 08:03:00
3:11 AM,57.2,55.4,94,30.17,0.5,Calm,Calm,-,N/A,Fog,Fog,0,2012-10-05 08:11:00
3:17 AM,55.4,55.4,100,30.16,1.0,Calm,Calm,-,N/A,,Clear,0,2012-10-05 08:17:00
3:20 AM,55.4,53.6,94,30.16,2.0,Calm,Calm,-,N/A,,Clear,0,2012-10-05 08:20:00
3:29 AM,55.4,53.6,94,30.16,8.0,Calm,Calm,-,N/A,,Clear,0,2012-10-05 08:29:00
3:53 AM,55.9,54.0,93,30.15,4.0,Calm,Calm,-,N/A,,Clear,0,2012-10-05 08:53:00
4:30 AM,55.4,53.6,94,30.17,1.8,Calm,Calm,-,N/A,,Clear,0,2012-10-05 09:30:00
4:39 AM,53.6,51.8,94,30.17,3.0,Calm,Calm,-,N/A,,Clear,0,2012-10-05 09:39:00
4:53 AM,55.0,53.1,93,30.16,6.0,Calm,Calm,-,N/A,,Clear,0,2012-10-05 09:53:00
5:45 AM,55.4,53.6,94,30.17,1.8,Calm,Calm,-,N/A,,Clear,0,2012-10-05 10:45:00
5:53 AM,54.0,53.1,97,30.17,0.8,Calm,Calm,-,N/A,,Clear,0,2012-10-05 10:53:00
6:00 AM,53.6,51.8,94,30.17,0.2,Calm,Calm,-,N/A,Fog,Fog,0,2012-10-05 11:00:00
6:08 AM,53.6,51.8,94,30.17,1.0,Calm,Calm,-,N/A,,Clear,0,2012-10-05 11:08:00
6:11 AM,53.6,51.8,94,30.17,2.5,Calm,Calm,-,N/A,,Clear,0,2012-10-05 11:11:00
6:21 AM,53.6,51.8,94,30.17,1.2,Calm,Calm,-,N/A,,Clear,0,2012-10-05 11:21:00
6:32 AM,55.4,53.6,94,30.17,0.8,Calm,Calm,-,N/A,,Clear,0,2012-10-05 11:32:00
6:41 AM,55.4,53.6,94,30.17,1.8,Calm,Calm,-,N/A,,Clear,0,2012-10-05 11:41:00
6:49 AM,53.6,53.6,100,30.17,0.8,Calm,Calm,-,N/A,,Clear,0,2012-10-05 11:49:00
6:53 AM,53.1,52.0,96,30.16,0.2,Calm,Calm,-,N/A,Fog,Fog,0,2012-10-05 11:53:00
7:21 AM,55.4,53.6,94,30.17,1.0,Calm,Calm,-,N/A,,Clear,0,2012-10-05 12:21:00
7:32 AM,55.4,53.6,94,30.16,2.0,Calm,Calm,-,N/A,,Clear,0,2012-10-05 12:32:00
7:53 AM,59.0,57.0,93,30.15,4.0,Calm,Calm,-,N/A,,Clear,0,2012-10-05 12:53:00
8:53 AM,66.9,60.1,79,30.14,9.0,SSW,6.9,-,N/A,,Clear,210,2012-10-05 13:53:00
9:53 AM,72.0,62.1,71,30.14,10.0,SW,9.2,-,N/A,,Clear,220,2012-10-05 14:53:00
10:53 AM,77.0,63.0,62,30.13,10.0,West,8.1,-,N/A,,Clear,260,2012-10-05 15:53:00
12:53 PM,78.1,55.9,46,30.08,10.0,SSW,11.5,18.4,N/A,,Scattered Clouds,200,2012-10-05 17:53:00
1:53 PM,79.0,59.0,50,30.04,10.0,WSW,6.9,-,N/A,,Mostly Cloudy,240,2012-10-05 18:53:00
2:53 PM,80.1,57.0,45,30.01,10.0,SW,10.4,-,N/A,,Scattered Clouds,230,2012-10-05 19:53:00
3:53 PM,79.0,57.0,47,30.00,10.0,SW,9.2,-,N/A,,Overcast,230,2012-10-05 20:53:00
4:53 PM,78.1,57.0,48,29.98,10.0,SW,6.9,-,N/A,,Overcast,220,2012-10-05 21:53:00
5:53 PM,75.9,57.9,54,29.99,10.0,SW,5.8,-,N/A,,Mostly Cloudy,220,2012-10-05 22:53:00
6:53 PM,73.9,59.0,59,29.98,10.0,WSW,3.5,-,N/A,,Partly Cloudy,240,2012-10-05 23:53:00
7:53 PM,73.9,60.1,62,29.96,10.0,SSW,5.8,-,N/A,,Overcast,200,2012-10-06 00:53:00
8:53 PM,63.0,55.0,75,30.00,10.0,NW,9.2,18.4,N/A,,Overcast,320,2012-10-06 01:53:00
9:45 PM,55.4,50.0,82,30.04,10.0,NW,11.5,20.7,N/A,,Overcast,320,2012-10-06 02:45:00
9:53 PM,55.0,48.9,80,30.02,10.0,NNW,10.4,18.4,N/A,,Overcast,330,2012-10-06 02:53:00
10:53 PM,52.0,45.0,77,30.05,10.0,North,11.5,20.7,0.00,,Overcast,350,2012-10-06 03:53:00
11:53 PM,50.0,43.0,77,30.07,10.0,North,12.7,20.7,N/A,,Overcast,350,2012-10-06 04:53:00